Tracking 30922 objects as of 2-Jul-2025
HD Live streaming from Space Station
objects crossing your sky now

OPS 4682 DEB

Track OPS 4682 DEB now!
10-day predictions


NORAD ID: 26733
Int'l Code: 1965-027BG
Perigee: 1,264.1 km
Apogee: 1,319.2 km
Inclination: 90.2 °
Period: 111.3 minutes
Semi major axis: 7662 km
RCS: 0.0115 m2 (small)
Launch date: April 3, 1965
Source: United States (US)
Launch site: AIR FORCE WESTERN TEST RANGE (AFWTR)

Note: This is SATELLITE DEBRIS
Your satellite tracking list
ARIANE 5 R/B
Track 1 satellite(s)




NASA's NSSDC Master Catalog

Two Line Element Set (TLE):
1 26733U 65027BG  25182.24136549 -.00000009  00000-0 -59574-4 0  9998
2 26733  90.2358 358.5029 0035934  65.8319 119.1775 12.94305407152529
Source of the keplerian elements: AFSPC